Regional Weather Roundup
Issued by NWS

Home | Current Version | Previous Version | Text Only | Print | Product List | Glossary On
Versions: 1 2 3 4 5 6 7 8 9 10 11 12 13 14 15 16 17 18 19 20 21 22 23 24 25 26 27 28
000
ASUS45 KPSR 180910
RWRAZ

ARIZONA HOURLY REGIONAL WEATHER ROUNDUP
NATIONAL WEATHER SERVICE PHOENIX AZ
200 AM MST WED JAN 18 2017

NOTE: FAIR INDICATES FEW OR NO CLOUDS BELOW 12,000 FEET WITH NO
SIGNIFICANT WEATHER AND/OR OBSTRUCTIONS TO VISIBILITY.

AZZ001>003-036-181000-
NORTHWEST ARIZONA

CITY           SKY/WX    TMP DP  RH WIND       PRES   REMARKS
BULLHEAD CITY  CLEAR     46  30  53 CALM      30.15R
KINGMAN        CLEAR     32  22  66 CALM      30.14S
$$

AZZ004>008-015-016-018-181000-
NORTH CENTRAL ARIZONA

CITY           SKY/WX    TMP DP  RH WIND       PRES   REMARKS
GRAND CANYON   CLEAR     22  20  92 CALM      30.17S
WILLIAMS       CLEAR     25  23  93 S8        30.16F WCI  16
PRESCOTT       CLEAR     31  28  89 S5        30.16S WCI  26
FLAGSTAFF      PTCLDY    22  20  92 CALM      30.17S
PAYSON         CLEAR     36  30  80 CALM      30.18S
PAGE           CLEAR     33  25  72 CALM      30.17R
$$

AZZ009>014-017-181000-
NORTHEAST ARIZONA

CITY           SKY/WX    TMP DP  RH WIND       PRES   REMARKS
WINSLOW        CLOUDY    32  31  96 CALM      30.18S
SAINT JOHNS    CLOUDY    36  34  92 CALM      30.15S
SHOW LOW       PTCLDY    28  27  93 W3        30.18R
$$

AZZ023-181000-
GREATER PHOENIX AREA

CITY           SKY/WX    TMP DP  RH WIND       PRES   REMARKS
PHOENIX        CLEAR     48  42  80 E7        30.11R
BUCKEYE          N/A     45  45 100 N8        30.12S
LUKE AFB       CLEAR     45  44  98 NW3       30.11R
DEER VALLEY    CLEAR     48  41  76 CALM      30.11R
SCOTTSDALE     CLEAR     47  41  80 NE3       30.12S
MESA-GATEWAY   CLEAR     43  41  93 E8        30.13S
$$

AZZ027-028-181000-
SOUTHWEST MARICOPA COUNTY AND PINAL COUNTY

CITY           SKY/WX    TMP DP  RH WIND       PRES   REMARKS
CASA GRANDE    LGT RAIN  43  39  87 NE5       30.14S FOG
$$

AZZ503-504-507>509-181000-
SOUTHEAST ARIZONA

CITY           SKY/WX    TMP DP  RH WIND       PRES   REMARKS
TUCSON         CLEAR     47  43  86 SE5       30.15S
DAVIS-MONTHAN  CLEAR     45  45  99 S3        30.14S
NOGALES        CLEAR     36  33  89 CALM      30.14F
SIERRA VISTA   CLEAR     38  34  84 SE3       30.17R
DOUGLAS        CLEAR     36  34  92 NE9       30.16R WCI  29
SAFFORD        PTCLDY    44  40  85 CALM      30.13R
$$

AZZ020-021-025-026-031-181000-
SOUTHWEST ARIZONA

CITY           SKY/WX    TMP DP  RH WIND       PRES   REMARKS
YUMA           CLEAR     51  32  48 NE5       30.12S
$$

CAZ031-033-041-043-047-048-061-181000-
SOUTHERN CALIFORNIA

CITY           SKY/WX    TMP DP  RH WIND       PRES   REMARKS
DOWNTOWN L.A.  CLEAR     51  48  89 CALM      30.15
L.A. AIRPORT   MOCLDY    54  52  93 N3        30.15F
SAN DIEGO      MOCLDY    52  46  80 N3        30.20R
BURBANK        CLEAR     45  37  73 CALM      30.14F
ONTARIO        PTCLDY    47  37  68 CALM      30.16F
RIVERSIDE      CLEAR     44  41  89 E3        30.16F
PALM SPRINGS   CLEAR     49  35  58 NW8       30.16R
EL CENTRO NAS  CLEAR     47  38  71 W9        30.14S
IMPERIAL       CLEAR     45  38  76 W5        30.12S
BLYTHE         CLEAR     49  28  44 SW6       30.13F
NEEDLES        CLEAR     46  27  47 W5        30.14S
$$

NVZ020-UTZ003-181000-
SOUTHERN NEVADA-UTAH

CITY           SKY/WX    TMP DP  RH WIND       PRES   REMARKS
LAS VEGAS      PTCLDY    42  23  46 SW5       30.14S
SALT LAKE CITY PTCLDY    21  18  88 N6        30.21F WCI  13
$$

NMZ009-TXZ055-181000-
NEW MEXICO-WEST TEXAS

CITY           SKY/WX    TMP DP  RH WIND       PRES   REMARKS
ALBUQUERQUE    MOCLDY    37  33  85 SE3       30.14S
EL PASO        CLEAR     38  35  89 SE5       30.15S WCI  34
$$


........................KEY........................
SKY/WX - SKY CONDITION/WEATHER
TMP    - TEMPERATURE IN FAHRENHEIT
DP     - DEW POINT IN FAHRENHEIT
RH     - RELATIVE HUMIDITY IN PERCENT
WIND   - DIRECTION AND SPEED IN MILES PER HOUR (MPH)
VRB    - VARIABLE WIND DIRECTION
PRES   - MEAN SEA LEVEL PRESSURE IN INCHES OF MERCURY
         F - FALLING PRESSURE   R - RISING PRESSURE
         S - STEADY PRESSURE
VSB    - VISIBILITY IN MILES
HX     - HEAT INDEX IN FAHRENHEIT
WCI    - WIND CHILL INDEX IN FAHRENHEIT
TC     - TEMPERATURE IN CELSIUS WHICH IS ALSO KNOWN AS
         TEMPERATURE IN CENTIGRADE
AFB    - AIR FORCE BASE
         LUKE AFB IS LUKE AIR FORCE BASE
         DAVIS-MONTHAN IS DAVIS-MONTHAN AIR FORCE BASE
NAS    - NAVAL AIR STATION
         EL CENTRO NAS IS EL CENTRO NAVAL AIR STATION
N/A    - NOT AVAILABLE





USA.gov is the U.S. government's official web portal to all federal, state and local government web resources and services.